YAOGAN 10

导读

YAOGAN 10即遥感十号卫星,是中国自主研制的遥感卫星,于北京时间2010年8月9日发射。该卫星由中国航天科技集团公司上海航天技术研究院为主研制,采用长征四号丙运载火箭执行发射任务,是长征系列运载火箭的第127次飞行。卫星主要服务于科学试验、国土资源普查、农作物估产及防灾减灾等领域,可为国民经济发展提供有力的数据支撑。

Basic Information
目录编号:
36834
目录名称:
YAOGAN 10
国际标识:
2010-038A
轨道中心:
EARTH
卫星名称:
YAOGAN 10
卫星全名:
--
卫星状态:
在轨 (已飞行5832 天)
发射日期:
2010-08-09 UTC
国别 :
中国 (CN)
星等 :
--
Orbit Information
数据来源 国际轨道数据 AOE轨道数据
星历时间 2026-07-27T23:25:04+0800
8小时前
查看轨道信息
2026-07-26T02:00:00+0800
2天前
查看轨道信息
半长轴 6990.27km 6990.237km
偏心率 0.000156 0.0001142
轨道倾角 97.897° 97.898°
近地点辐角 85.625° 79.700°
升交点赤经 231.725° 229.845°
平近点角 19.750° 351.926°
近地点 611.042km 611.301km
远地点 613.224km 612.899km
周期 96.939分钟 96.939分钟
每日圈数 14.85463 14.854738
Detailed Information
使用方式:
暂无
2D Orbit Map
3D Orbit Map
Orbit Altitude Analysis Chart
Orbit Inclination Analysis Chart
Orbit Comprehensive Analysis Chart
View Comprehensive Chart